Regional Weather Roundup
Issued by NWS

Home | Current Version | Previous Version | Text Only | Print | Product List | Glossary Off
Versions: 1 2 3 4 5 6 7 8 9 10 11 12 13 14 15 16 17 18 19 20 21 22 23 24 25 26 27 28 29 30 31 32 33 34 35 36 37 38 39 40 41 42 43 44 45 46 47 48 49 50

000
ASUS43 KOAX 270810
RWRNE

WEATHER ROUNDUP FOR NEBRASKA
NATIONAL WEATHER SERVICE OMAHA NE
300 AM CDT WED JUL 27 2016

NOTES: SATELLITE DATA IS BEING USED TO AUGMENT CLOUD COVER ABOVE
       12000 FEET.
       "FAIR" INDICATES FEW OR NO CLOUDS BELOW 12,000 FEET WITH NO
       SIGNIFICANT WEATHER AND/OR OBSTRUCTIONS TO VISIBILITY.

  * THESE STATIONS DO NOT REPORT WEATHER SUCH AS RAIN...SNOW OR FOG.

NEZ001>004-019>022-054>056-270900-
NEBRASKA PANHANDLE

CITY           SKY/WX    TMP DP  RH WIND       PRES   REMARKS
SCOTTSBLUFF    CLOUDY    66  58  75 NE12      30.12S
ALLIANCE       MOCLDY    63  56  78 CALM      30.11R
CHADRON        PTCLDY    61  57  87 N6        30.05F
KIMBALL        CLOUDY    62  46  56 SW9       30.15S
SIDNEY         CLOUDY    69  50  50 SW6       30.11S
$$

NEZ057>060-069>072-079>082-270900-
SOUTHWEST NEBRASKA

CITY           SKY/WX    TMP DP  RH WIND       PRES   REMARKS
NORTH PLATTE   MOCLDY    64  60  87 SE9       30.10F
IMPERIAL       CLOUDY    66  58  75 E15       30.10F
LEXINGTON      CLOUDY    63  61  93 SE5       30.09F
MCCOOK         MOCLDY    64  60  87 E21       30.09F
OGALLALA       CLOUDY    65  58  80 E10G16    30.10S
$$

NEZ005>010-023>029-035>040-094-270900-
NORTH CENTRAL NEBRASKA

CITY           SKY/WX    TMP DP  RH WIND       PRES   REMARKS
VALENTINE      MOCLDY    65  58  78 MISG      30.06R
AINSWORTH      MOCLDY    63  60  88 E13       30.02R
BROKEN BOW     MOCLDY    63  60  90 SW3       30.10R
O`NEILL        TSTM      65  62  89 NE24      29.98F
ORD            CLOUDY    65  59  81 N12       29.99F
THEDFORD       CLOUDY    64  60  87 S8        30.10R
$$

NEZ041-046>049-061>064-073>077-083>087-270900-
SOUTH CENTRAL NEBRASKA

CITY           SKY/WX    TMP DP  RH WIND       PRES   REMARKS
GRAND ISLAND   LGT RAIN  74  55  51 N38G61    30.04F SQUALL
AURORA         CLOUDY    70  61  72 N16G26    30.08F
HASTINGS       MOCLDY    69  58  67 N12       30.11F
HEBRON         CLOUDY    68  65  92 NW6       30.07R
HOLDREGE       CLOUDY    63  60  91 E13       30.10F
YORK           CLOUDY    70  66  88 NW9       30.10R
$$

NEZ011>018-030>034-042>045-270900-
NORTHEAST NEBRASKA

CITY           SKY/WX    TMP DP  RH WIND       PRES   REMARKS
NORFOLK        LGT RAIN  71  65  81 W9        30.05F
ALBION         LGT RAIN  66  63  89 CALM      30.04F
BLAIR          PTCLDY    70  66  87 CALM      30.03R
FREMONT        MOCLDY    72  65  79 W6        30.05R
TEKAMAH        MOCLDY    68  65  90 CALM      30.02R
WAYNE          LGT RAIN  71  67  89 SW6       30.02F
$$

NEZ050>053-065>068-078-088>093-270900-
SOUTHEAST NEBRASKA

CITY           SKY/WX    TMP DP  RH WIND       PRES   REMARKS
LINCOLN        MOCLDY    73  65  75 W6        30.05R
OMAHA EPPLEY   MOCLDY    74  66  76 S6        30.01S
BEATRICE       PTCLDY    67  65  94 CALM      30.03S
FALLS CITY     PTCLDY    68  67  96 CALM      30.00R
NEBRASKA CITY  PTCLDY    69  67  94 CALM      30.01F
PLATTSMOUTH    MOCLDY    69  67  94 SE5       30.01F
$$

NEZ044-045-051>053-067-270900-
OMAHA AREA

CITY           SKY/WX    TMP DP  RH WIND       PRES   REMARKS
OMAHA EPPLEY   MOCLDY    74  66  76 S6        30.01S
BLAIR          PTCLDY    70  66  87 CALM      30.03R
FREMONT        MOCLDY    72  65  79 W6        30.05R
MILLARD        CLOUDY    70  68  93 CALM      30.01S
OFFUTT AFB     PTCLDY    66  66 100 E2        30.00S
PLATTSMOUTH    MOCLDY    69  67  94 SE5       30.01F
WAHOO          FAIR      69  66  91 W6        30.05R
$$




USA.gov is the U.S. government's official web portal to all federal, state and local government web resources and services.